Weather Roundup
Issued by NWS Chicago, IL

Home | Current Version | Previous Version | Graphics & Text | Print | Product List | Glossary On
Versions: 1 2 3 4 5 6 7 8 9 10 11 12 13 14 15 16 17 18 19 20 21 22 23 24 25 26 27 28 29 30 31 32 33 34 35 36 37 38 39 40 41 42 43 44 45 46 47 48 49 50
000
NZUS59 KLOT 240808
HRRLOT

CHICAGO AREA WEATHER ROUNDUP
NATIONAL WEATHER SERVICE CHICAGO/ROMEOVILLE IL
300 AM CDT THU MAY 24 2018

NOTE: "FAIR" INDICATES FEW OR NO CLOUDS BELOW 12,000 FEET WITH NO
SIGNIFICANT WEATHER AND/OR OBSTRUCTIONS TO VISIBILITY.

* THESE STATIONS ARE NOT UNDER NWS QUALITY CONTROL. THEY ALSO MAY NOT
  REPORT WEATHER SUCH AS PRECIPITATION OR FOG.

ILZ005-006-012>014-019>023-240900-
NORTHEAST ILLINOIS

CITY           SKY/WX    TMP DP  RH WIND       PRES   REMARKS
OHARE            N/A     60  52  74 CALM      30.16S
MIDWAY           N/A     60  53  77 CALM      30.16S
AURORA           N/A     58  53  84 NE3       30.16S
LANSING*         N/A     55  55 100 CALM      30.17S
JOLIET*          N/A     58  55  90 CALM      30.17R
WAUKEGAN         N/A     51  51 100 CALM      30.16S FOG
DUPAGE AIRPORT   N/A     59  52  77 CALM      30.16S
WHEELING         N/A     57  54  89 CALM      30.18S
KANKAKEE*        N/A     60  54  80 CALM      30.17S
MORRIS*          N/A     59  52  78 CALM      30.16S
LEWIS AIRPORT*   N/A     58  53  83 CALM      30.17S
NORTHERLY ISL    N/A     56  51  84 NW1         N/A
$$

WIZ051-052-058>065-066-070>072-240900-
SOUTHEAST WISCONSIN

CITY           SKY/WX    TMP DP  RH WIND       PRES   REMARKS
MILWAUKEE        N/A     58  50  75 SW3       30.17S
KENOSHA*         N/A     54  51  90 CALM      30.17S
RACINE*          N/A     54  52  93 SW5       30.18S
BURLINGTON       N/A     53  52  96 CALM      30.17S
WAUKESHA         N/A     54  46  76 CALM      30.18S
WEST BEND        N/A     54  50  87 CALM      30.17S
$$

INZ001>003-010>013-019-020-240900-
NORTHWEST INDIANA

CITY           SKY/WX    TMP DP  RH WIND       PRES   REMARKS
GARY*            N/A     55  55 100 CALM      30.17S FOG
MICHIGAN CITY* NOT AVBL
RENSSELAER*    NOT AVBL
VALPARAISO       N/A     60  56  86 E5        30.18S
$$

LMZ740>746-240900-
SOUTHERN LAKE MICHIGAN

STATION/POSITION TIME  SKY/WX   TEMP WIND        PRES    VSBY
                                AIR  DIR/SP/G
                 (UTC)          (F)  (DEG/KT/KT) (MB)    (MI)
HARRISON CRIB    0740            58  100/  2/  3   N/A
BURNHAM HARBOR   0800            56  350/  1/  3   N/A
CALUMET HARBOR   0748            56   30/  1/  2 1020.8F
BURNS HARBOR     0740            58     CALM     1022.0F
MICHIGAN CITY    0740            60  100/  3/  4   N/A
$$

ABBREVIATIONS USED IN REMARKS
   TC - TEMPERATURE IN CELSIUS
  WCI - WIND CHILL INDEX
   HX - HEAT INDEX
  VSB - VISIBILITY
$$




USA.gov is the U.S. government's official web portal to all federal, state and local government web resources and services.